AirNav   Everest Fuels
 
 583 users online  

CYQG Windsor Airport
Windsor, Ontario, Canada

GOING TO WINDSOR?


FAA INFORMATION EFFECTIVE 16 JUNE 2022

The information below comes from the U.S. Federal Aviation Administration (FAA). The FAA is not the official source of data for facilities located outside the United States, and THESE RECORDS ARE LIKELY NOT COMPLETE OR CORRECT.

Location

FAA Identifier: CYQG
Lat/Long: 42-16-33.1111N 082-57-27.5347W
42-16.551852N 082-57.458912W
42.2758642,-82.9576485
(estimated)
Elevation: 622 ft. / 190 m (estimated)
Variation: 07W ()
Time zone: UTC -4 (UTC -5 during Standard Time)
Zip code: 48243

Airport Operations

Airport use: Open to the public
Activation date: 03/2005
Control tower: no
ARTCC: CLEVELAND CENTER
FSS: LONDON FIC FLIGHT SERVICE STATION
Attendance: 
Segmented circle: no

Airport Communications

WX ASOS at DET (8 nm N): PHONE 313-371-9696
WX AWOS-3 at ONZ (14 nm SW): 119.675 (734-692-9686)
WX ASOS at DTW (18 nm W): PHONE 734-955-5015
WX AWOS-3 at VLL (19 nm NW): 119.475 (248-288-4649)

Airport Services

Runway Information

Runway 7/25

Dimensions: 9000 x 200 ft. / 2743 x 61 m
Surface: asphalt
RUNWAY 7  RUNWAY 25
Latitude: 42-16.404018N42-17.086803N
Longitude: 082-58.209487W082-56.438652W
Elevation: 622.0 ft.608.0 ft.
Traffic pattern: leftleft
Runway heading: 070 magnetic, 063 true250 magnetic, 243 true
Displaced threshold: 901 ft.1143 ft.
Touchdown point: yes, no lightsyes, no lights

Runway 12/30

Dimensions: 5150 x 150 ft. / 1570 x 46 m
Surface: asphalt
RUNWAY 12  RUNWAY 30
Latitude: 42-16.396830N42-16.030400N
Longitude: 082-58.209295W082-57.179820W
Elevation: 622.0 ft.619.0 ft.
Traffic pattern: leftleft
Runway heading: 123 magnetic, 116 true303 magnetic, 296 true
Displaced threshold: 570 ft.321 ft.
Touchdown point: yes, no lightsyes, no lights

Airport Ownership and Management from official FAA records

Ownership: Publicly-owned

Additional Remarks

FOR CD CTC DETROIT APCH AT 734-955-1404.

Instrument Procedures

There are no published instrument procedures at CYQG.

Some nearby airports with instrument procedures:

KDET - Coleman A Young Municipal Airport (8 nm N)
KONZ - Grosse Ile Municipal Airport (14 nm SW)
KDTW - Detroit Metro Wayne County Airport (18 nm W)
KVLL - Oakland/Troy Airport (19 nm NW)
KMTC - Selfridge Air National Guard Base (21 nm N)
 
Loc | Ops | Rwys | IFR | FBO | Links
Com | Nav | Svcs | Stats | Notes
Aerial photo
No photo
 
Airport distance calculator
Flying to Windsor Airport? Find the distance to fly.

From to CYQG

Sunrise and sunset
Times for 29-Jun-2022
 Local
(UTC-4)
 Zulu
(UTC)
Morning civil twilight05:2409:24
Sunrise05:5909:59
Sunset21:1101:11
Evening civil twilight21:4601:46

Current date and time
Zulu (UTC)  29-Jun-2022 06:07:01
Local (UTC-4)  29-Jun-2022 02:07:01
 
METAR
CYQG 290500Z AUTO 18007KT 9SM CLR 18/12 A3015 RMK SLP211 DENSITY ALT 900FT
KDET 
8nm N 
290553Z 19007KT 10SM CLR 21/12 A3014 RMK AO2 SLP204 T02060122 10256 20200 56004
KONZ 
14nm SW 
290555Z AUTO 21008KT 10SM SCT120 21/19 A3015 RMK AO2 T02070190 10224 20205 402370106
CXHA 
15nm S 
290500Z AUTO 17004KT 18/14 RMK AO1 SLP204 T01750141 56002
KDTW 
17nm W 
290553Z 20004KT 10SM FEW140 OVC250 17/13 A3015 RMK AO2 SLP207 T01670128 10244 20167 57003
KVLL 
19nm NW 
290555Z AUTO 22005KT 10SM CLR 20/10 A3016 RMK AO2 T01950097 10265 20195 402760113
TAF
CYQG 290540Z 2906/3006 18007KT P6SM FEW200 FM290900 21005KT P6SM SCT100 BKN220 FM291200 23005KT P6SM -SHRA BKN050 OVC100 FM291800 27012KT P6SM BKN060 BECMG 2920/2922 32012KT FM300000 04010KT P6SM BKN070 FM300300 05010KT P6SM FEW060 RMK FCST BASED ON AUTO OBS. NXT FCST BY 291200Z
KDET 
8nm N 
290520Z 2906/3006 18005KT P6SM BKN250 FM291000 23005KT 6SM -SHRA OVC070 FM291400 28007KT P6SM BKN045 OVC100 FM291700 28007KT P6SM SCT045 FM292000 30010KT P6SM SCT060 FM292200 04010KT P6SM SCT045
KDTW 
17nm W 
290520Z 2906/3012 18005KT P6SM BKN250 FM291000 23005KT 6SM -SHRA OVC070 FM291400 28007KT P6SM BKN045 OVC100 FM291700 28007KT P6SM SCT045 FM292000 30010KT P6SM SCT060 FM292300 04010KT P6SM SCT045
NOTAMs
Click for the latest NOTAMs
NOTAMs are issued by the DoD/FAA and will open in a separate window not controlled by AirNav.

 

 
 

FBO, Fuel Providers, and Aircraft Ground Support

  
 Business Name 
 
 Contact 
 
 Services / Description 
 
Fuel Prices
 
Comments
  
Gateway Aviation Windsor 519-971-1462
no information available

If you are affiliated with Gateway Aviation Windsor and would like to show here your services, contact info, web link, logo, and more, click here
100LL Jet A
FS $12.90 $10.59 
 Updated 27-May-2022
 
   write
FS=Full service
Update Fuel Prices
 

Would you like to see your business listed on this page?

 If your business provides an interesting product or service to pilots, flight crews, aircraft, or users of the Windsor Airport, you should consider listing it here.  To start the listing process, click on the button below
 
Add a business
 

Other Pages about Windsor Airport

Update a link
 
Copyright © AirNav, LLC. All rights reserved. Privacy Policy  Contact